Terminal Aerodrome Forecast
Issued by NWS Charleston, WV

Current Version | Previous Version | Graphics & Text | Print | Product List | Glossary On
Versions: 1 2 3 4 5 6 7 8 9 10 11 12 13 14 15 16 17 18 19 20 21 22
000
FTUS41 KRLX 080548
TAFHTS
TAF
KHTS 080548Z 0806/0906 27004KT P6SM OVC080
     FM081300 27006KT P6SM BKN080
     FM081500 27008KT P6SM SCT060
     FM081900 28009G16KT P6SM SCT250
     FM082100 28009G17KT P6SM SCT040
     FM082300 28009G16KT P6SM BKN040=

USA.gov is the U.S. government's official web portal to all federal, state and local government web resources and services.